Wind_Speed
70 71 71 72 73 73 73 73 72 72 72 72 73 73 74 74 74 73 71 70 67 63 59 58 58 57 54 52 52 52 53 54 53 50 49 48 47 47 48 49 49 50 51 53 55 56 57 57 56 54 52 49 48 49 51 53 53 55 59 58 56 55 54 52 49 46 45 45 45 46 48 48 45 41 39 38 38 37 33 29 27 26 25 24 23
72 72 73 73 73 74 74 74 74 74 73 73 74 74 75 75 75 74 72 71 68 66 65 64 63 61 59 58 58 58 58 56 55 51 50 51 51 51 52 54 54 56 58 59 60 61 60 59 56 54 52 49 49 51 53 53 54 57 59 57 56 54 52 48 45 45 45 45 46 48 49 46 42 39 37 37 36 33 30 27 26 26 25 24 23
73 73 74 74 75 75 75 75 75 75 74 74 74 74 75 76 75 74 73 70 68 67 67 67 66 64 63 63 63 63 62 61 58 56 57 60 62 62 61 62 61 62 64 65 64 62 60 58 56 54 51 50 50 52 54 54 55 58 58 57 55 51 47 45 43 43 44 46 48 49 46 43 39 37 36 36 34 31 27 26 26 26 25 24 23
74 74 75 75 76 76 76 76 75 75 74 74 74 75 75 75 72 70 69 67 66 65 64 64 63 62 63 64 65 66 66 65 62 62 64 67 69 69 69 69 68 67 67 67 65 62 59 57 55 53 51 51 52 54 55 55 57 58 58 57 52 47 43 42 42 43 45 48 49 47 43 40 37 36 35 33 32 28 26 26 26 25 25 24 24
75 76 77 77 78 77 77 76 76 76 76 75 75 75 75 74 72 70 70 70 69 68 67 66 66 66 68 69 71 72 72 69 66 66 70 72 72 72 72 72 70 69 68 67 65 62 59 56 54 52 52 52 53 55 56 56 58 58 58 55 47 42 41 41 42 44 47 48 47 43 40 37 35 35 33 31 30 27 25 25 25 25 24 24 24
76 77 78 78 79 79 78 77 77 77 77 77 76 75 76 75 76 76 76 76 75 74 72 71 72 72 73 74 74 74 74 72 70 72 75 76 74 73 73 72 71 71 70 68 65 61 58 54 52 52 52 53 55 57 57 58 59 59 58 52 43 40 40 41 42 45 46 45 42 39 37 35 34 33 31 30 28 26 25 25 25 25 24 25 24
77 78 80 80 80 80 79 79 78 78 78 78 77 77 77 77 78 78 78 77 76 75 74 74 74 74 74 74 73 72 72 73 74 75 74 73 71 71 71 72 73 72 71 66 62 59 55 51 51 51 53 54 56 57 58 59 59 59 56 48 40 39 40 41 42 44 43 40 38 37 36 34 33 31 30 28 26 26 26 25 25 25 25 25 25
79 79 80 80 81 81 81 81 80 79 78 79 78 78 78 78 78 78 78 77 76 76 75 75 76 76 75 73 72 72 73 75 76 74 72 71 71 72 73 72 71 70 67 62 58 55 51 50 50 51 53 55 56 58 59 60 60 59 54 44 39 39 40 41 42 41 38 36 36 35 35 33 31 30 28 27 26 26 26 25 25 25 25 25 25
80 81 81 80 81 81 81 82 82 81 80 80 80 80 80 80 80 79 79 78 77 77 77 77 77 76 75 74 74 75 76 76 75 74 74 74 74 74 73 71 68 66 62 58 54 51 50 50 51 51 52 54 56 58 60 61 61 58 50 42 39 40 40 41 40 37 35 35 34 34 34 32 30 28 27 26 27 27 26 25 25 25 25 25 26
82 82 81 81 81 82 82 82 82 82 81 82 82 81 81 81 81 80 79 79 78 78 78 78 77 76 75 75 75 76 77 77 76 76 76 75 75 73 69 66 63 61 58 55 51 50 51 51 51 51 53 55 57 60 61 62 61 55 47 40 39 40 40 40 38 35 34 34 33 33 33 32 29 27 26 27 27 27 25 25 26 26 26 26 26
83 83 82 82 82 82 83 83 83 83 83 83 84 83 83 83 83 81 80 79 79 78 78 77 77 76 76 76 77 78 78 77 76 76 76 74 72 69 66 62 59 56 53 51 51 52 51 51 50 51 54 56 59 61 62 63 60 52 45 41 40 40 39 38 35 34 34 33 33 33 32 31 29 27 26 27 27 26 25 25 26 26 26 26 26
83 83 83 82 82 83 83 83 83 84 84 84 84 84 84 85 84 82 81 80 79 78 78 77 77 77 77 77 77 78 77 77 77 76 75 73 69 64 61 58 57 55 52 51 52 51 51 50 50 52 55 58 61 62 64 64 59 50 45 42 38 37 37 35 34 34 34 33 33 33 31 29 28 27 26 27 26 26 26 26 26 27 27 26 27
84 84 84 83 83 83 83 83 84 84 84 84 84 84 83 83 83 84 83 81 80 79 79 78 78 78 78 77 77 77 77 77 76 76 73 70 65 61 57 55 56 55 53 53 52 50 49 49 52 55 58 61 63 64 66 63 56 49 45 41 36 34 34 34 34 34 33 32 33 32 29 28 27 26 27 27 26 25 26 26 27 28 28 27 27
85 85 85 84 84 84 84 83 84 83 84 84 84 84 84 85 87 86 84 82 81 80 79 79 78 78 78 77 77 76 76 76 75 74 71 66 61 59 56 53 54 54 54 54 53 50 49 51 55 57 60 62 63 66 65 59 52 48 44 39 34 32 32 33 33 33 32 31 32 30 27 27 26 26 27 27 26 26 26 26 27 28 28 27 27
87 86 86 85 84 84 84 83 84 83 84 86 86 86 87 89 90 88 86 84 82 80 80 79 78 78 77 77 77 77 76 75 74 71 67 63 59 58 55 53 55 55 55 56 55 54 53 55 57 60 62 63 65 66 60 52 48 45 40 36 33 32 31 30 31 31 31 30 31 29 26 26 26 26 26 27 27 27 27 27 27 28 28 28 28
87 87 87 85 84 84 84 84 84 85 85 86 87 87 88 90 91 91 88 85 83 82 80 80 79 78 78 77 77 76 75 73 71 67 63 61 58 56 55 54 54 54 54 55 55 56 57 58 60 64 64 65 65 60 52 47 44 41 38 35 32 31 30 28 28 29 30 31 30 28 25 25 26 26 26 27 28 29 29 28 27 27 28 28 29
87 87 87 85 84 84 85 85 84 85 85 86 87 87 88 88 89 93 91 86 84 83 81 80 80 79 78 78 76 74 72 70 66 62 60 58 56 55 54 54 54 55 55 55 57 58 60 62 64 65 66 65 59 50 46 44 41 39 38 36 33 31 29 27 27 27 30 31 30 27 25 25 26 27 27 27 28 30 30 30 28 28 28 29 29
87 86 86 86 85 85 86 86 85 85 85 85 86 87 88 87 88 91 92 89 87 84 83 82 81 80 78 76 74 71 69 66 62 59 57 56 56 55 54 53 55 58 59 60 61 61 63 63 64 66 64 58 50 46 45 41 40 41 40 37 33 31 30 29 28 27 29 31 30 28 26 26 27 29 29 29 29 31 32 31 30 29 28 29 30
86 86 87 87 86 85 85 85 86 86 86 86 86 87 87 88 88 89 90 90 89 86 85 83 81 79 77 74 71 68 64 62 59 56 55 55 55 55 54 53 53 55 57 59 61 62 63 63 64 62 55 48 46 46 43 40 40 41 39 37 34 34 34 32 29 28 28 30 31 29 28 28 29 30 31 31 31 31 32 32 31 30 30 30 31
87 88 88 88 87 86 85 85 86 86 86 87 87 86 87 88 88 89 90 91 90 87 85 83 80 77 74 71 67 64 61 58 56 53 53 54 55 54 53 52 52 52 54 57 60 61 62 61 58 51 45 44 45 42 39 38 39 39 40 39 39 39 37 34 31 29 28 29 31 31 30 29 30 31 32 33 32 32 32 33 33 32 31 31 31
89 89 88 88 87 87 87 86 86 86 86 86 86 87 88 88 89 90 90 90 89 86 83 80 77 74 70 66 63 60 58 56 54 52 52 53 53 52 51 50 51 53 55 56 57 57 55 52 48 43 44 44 41 38 37 37 38 40 42 42 42 42 39 36 33 30 29 29 30 32 31 31 31 31 33 33 32 31 33 34 34 33 32 32 32
89 88 88 88 87 87 87 86 86 86 86 86 86 87 89 90 90 90 89 87 85 82 79 76 73 70 66 62 60 57 55 54 53 52 52 52 52 51 50 49 51 53 54 53 51 50 47 45 43 44 45 43 39 37 38 40 42 43 45 45 44 43 40 38 35 32 30 28 30 32 33 32 31 31 33 32 31 31 33 34 34 34 33 33 33
87 87 87 87 86 86 85 85 85 85 85 86 86 87 88 88 87 86 85 82 80 77 73 69 66 64 62 60 58 56 54 53 52 52 51 50 50 49 48 48 49 50 49 47 46 44 43 43 43 45 44 40 38 37 40 44 46 47 48 47 45 43 41 39 37 34 31 28 29 32 33 34 32 31 33 32 31 32 33 34 35 34 34 33 33
86 86 86 85 84 84 84 84 84 85 84 84 83 83 83 82 81 80 78 76 74 72 69 65 63 61 60 58 56 54 52 51 50 50 51 50 49 48 47 47 49 49 47 45 44 44 45 45 45 44 43 40 38 38 42 45 47 49 50 49 46 44 42 40 38 36 33 29 29 31 34 35 34 32 32 32 32 34 34 33 33 33 33 33 34
84 84 83 83 82 82 82 82 82 81 80 79 77 77 77 76 75 73 72 71 69 68 67 65 64 63 60 57 55 53 51 50 49 49 49 50 50 49 49 50 53 53 50 48 46 46 47 47 47 45 44 42 40 41 44 46 48 49 49 49 47 44 42 41 39 38 35 31 29 30 34 36 35 32 32 33 34 35 34 32 32 32 32 33 34
82 81 80 79 78 77 77 78 77 76 75 74 73 72 72 71 70 69 68 68 66 66 66 65 65 64 60 57 55 53 51 50 50 49 49 50 51 52 53 53 54 53 51 49 49 48 48 49 48 47 46 45 43 45 46 47 48 47 48 49 47 44 43 41 41 40 36 32 30 30 33 35 34 33 32 34 35 35 34 32 31 31 32 33 34
78 76 74 73 71 71 73 74 73 73 73 72 70 70 69 68 68 68 67 67 66 66 65 64 63 62 59 57 55 53 52 52 51 51 51 51 52 53 53 50 50 50 49 49 50 49 49 49 49 49 47 45 45 46 47 47 48 47 48 49 47 45 43 43 42 41 37 33 31 30 32 35 34 33 33 34 36 36 34 32 31 31 32 33 34
71 70 68 68 67 66 65 62 62 64 66 67 66 66 66 66 67 67 67 66 65 64 62 61 60 60 58 56 55 53 53 53 53 53 53 53 54 54 50 47 48 49 50 50 50 50 50 50 50 49 47 46 47 48 49 49 48 48 48 49 47 45 44 43 42 40 37 33 32 31 33 35 35 34 34 35 37 36 33 31 31 32 32 33 34
65 64 64 65 63 61 62 62 62 65 66 65 64 64 64 65 65 65 65 64 62 61 59 58 57 57 57 56 55 54 54 54 55 55 55 55 53 50 46 46 48 48 49 49 49 49 49 49 49 48 47 48 49 50 51 51 50 48 48 49 47 45 43 42 40 38 35 34 34 34 35 35 35 35 35 36 37 35 32 30 31 32 32 32 33
59 57 57 59 59 59 63 68 69 70 70 68 64 64 63 63 63 63 62 61 60 59 57 55 55 55 55 55 54 54 54 54 54 54 54 52 48 45 45 46 47 46 47 46 46 46 46 46 46 45 46 47 49 50 51 50 50 48 47 48 45 42 41 40 38 36 35 35 36 36 36 36 35 35 36 36 35 34 31 29 29 30 31 31 32
51 46 49 58 64 62 62 64 67 68 68 66 62 61 61 60 61 60 60 59 57 55 54 53 54 54 55 54 54 53 52 49 48 48 48 47 44 43 43 43 44 44 44 44 44 44 43 43 43 44 46 49 51 51 49 49 48 47 46 46 42 39 39 39 36 35 36 37 37 37 37 36 35 36 36 35 35 33 31 29 28 28 29 31 32
44 41 49 58 62 63 60 61 63 65 64 62 60 59 58 58 58 58 56 55 53 52 51 52 52 52 52 51 50 48 45 43 42 41 42 42 40 39 39 40 41 41 41 41 41 41 42 43 45 47 49 51 51 48 47 47 46 45 45 44 40 36 37 38 37 36 38 38 38 38 38 37 36 36 35 35 35 33 32 30 29 28 29 31 33
49 49 55 62 65 66 65 63 61 61 60 60 58 57 56 55 55 54 53 51 50 49 48 47 44 44 44 42 42 40 39 40 40 40 40 37 36 36 36 37 37 38 39 39 39 40 44 46 47 49 49 49 47 44 44 45 44 43 43 40 37 35 36 38 39 38 39 39 40 39 39 38 36 35 34 35 36 34 33 32 32 31 30 31 33
54 53 57 63 66 65 63 61 59 59 58 57 56 55 54 52 50 49 48 47 47 46 43 41 37 35 35 34 32 31 31 33 33 34 35 34 35 35 35 35 34 39 42 40 41 45 47 49 50 51 50 46 44 42 42 43 42 41 40 37 35 35 36 38 40 41 41 41 40 39 38 37 35 34 34 35 36 36 34 34 35 34 32 31 32
52 52 55 57 59 59 59 58 57 56 55 54 53 53 52 50 48 46 45 44 45 43 36 35 36 30 29 29 26 24 22 22 23 25 28 31 32 31 31 32 32 38 44 44 46 47 47 50 54 53 48 42 39 39 39 39 39 38 37 35 34 34 36 38 39 40 40 39 38 37 37 37 36 35 36 37 37 37 36 36 36 35 34 32 31
53 53 55 56 57 57 56 55 53 52 52 50 49 49 49 47 45 43 42 42 42 40 32 32 36 30 29 31 27 26 25 24 25 26 28 29 31 31 31 34 36 40 43 45 46 46 47 51 52 48 44 40 37 35 35 35 36 35 34 33 33 33 34 35 36 37 36 36 36 36 37 37 37 36 37 38 38 38 39 39 37 34 34 33 31
52 53 53 54 54 53 51 50 49 49 49 48 47 46 46 44 42 40 40 39 38 37 34 33 35 31 33 35 31 32 34 32 32 32 32 32 33 35 37 38 40 41 41 42 44 44 47 49 46 43 39 36 36 36 34 33 33 33 33 33 32 32 33 34 35 36 37 37 38 39 39 38 39 39 39 40 40 40 40 39 36 34 34 35 32
51 51 50 50 49 48 48 47 47 46 46 46 46 45 44 42 41 40 39 39 38 37 36 35 33 33 34 36 35 37 38 37 37 38 39 39 39 39 41 42 42 43 43 43 43 43 44 41 40 40 36 32 35 39 37 32 31 32 32 32 30 30 31 33 34 35 36 38 39 41 41 41 41 41 42 42 41 40 40 38 36 34 33 35 34
48 49 48 48 47 46 46 46 46 46 45 45 45 44 44 42 41 40 39 38 38 38 37 36 35 36 37 38 38 39 40 40 40 42 43 43 43 43 44 45 45 46 46 45 43 43 42 35 30 32 33 33 35 37 37 33 30 30 30 30 29 29 30 31 32 32 33 34 36 39 41 41 41 41 40 40 39 39 38 37 35 34 33 33 34
42 43 45 45 44 43 43 44 45 45 45 44 43 42 41 41 39 38 37 36 36 37 38 38 38 40 40 41 42 42 43 44 44 44 45 45 46 46 47 47 47 47 45 44 43 41 38 30 26 31 35 35 33 33 36 35 32 29 29 30 30 30 31 32 32 32 32 33 34 35 37 38 39 38 37 37 37 37 37 36 36 35 35 35 36
39 40 41 42 41 40 40 41 42 44 44 43 42 41 39 38 37 36 34 33 33 35 37 40 42 43 44 45 45 45 46 47 48 48 48 48 48 48 48 48 47 46 44 44 43 39 34 30 30 34 36 35 32 34 36 38 37 32 30 31 33 33 33 34 34 33 33 33 33 33 34 34 35 34 34 35 36 35 35 36 36 37 38 38 38
38 38 38 39 39 38 38 38 39 40 40 39 38 38 37 35 35 34 33 33 33 34 36 38 41 43 45 46 47 47 47 48 49 49 49 49 49 48 48 47 46 45 44 43 41 37 32 30 31 33 34 33 32 35 38 39 40 36 32 33 34 35 35 35 35 34 33 32 32 32 31 31 33 34 34 35 36 36 37 37 37 38 39 40 40
38 38 37 37 37 37 38 37 36 36 36 35 35 35 35 33 32 32 32 32 33 34 35 37 39 41 42 44 44 45 46 46 47 47 47 47 47 47 47 46 46 44 43 41 37 33 30 29 29 30 31 32 32 34 37 38 39 38 35 34 35 36 36 37 36 35 34 33 32 31 30 30 32 33 33 34 37 38 39 40 39 39 39 40 40
38 38 38 37 37 38 38 38 38 37 37 37 36 35 34 34 33 32 31 32 33 34 36 37 39 40 42 43 43 44 44 44 44 44 44 45 45 45 45 45 44 42 40 37 33 30 29 28 29 28 29 30 31 32 34 36 39 40 40 39 38 37 38 38 38 36 35 35 34 32 31 31 32 31 30 31 33 34 36 38 39 39 38 38 38
39 39 39 39 39 39 39 39 40 40 40 40 40 39 38 37 36 35 34 34 35 36 37 38 40 41 43 44 45 45 45 44 44 44 44 44 44 44 43 42 40 38 35 33 30 28 28 28 28 28 28 28 29 29 30 32 36 38 40 42 43 42 41 40 39 38 36 35 36 35 33 33 33 32 32 31 31 32 34 36 38 38 38 38 38
39 40 40 40 40 40 40 40 41 41 42 42 42 42 41 41 41 41 40 40 40 40 41 42 43 43 44 45 46 46 46 45 45 45 44 43 43 42 40 38 37 35 32 30 28 28 28 29 28 27 27 27 26 27 27 28 30 31 35 39 42 44 44 43 42 41 37 34 33 34 32 31 32 33 34 33 32 32 34 36 38 39 39 38 39
39 40 40 40 40 40 40 40 40 41 42 43 44 44 44 45 45 45 45 45 45 45 45 46 46 46 46 46 46 46 46 46 45 45 44 43 42 40 38 36 35 32 30 29 28 28 28 29 28 27 26 25 25 25 25 25 27 28 30 33 36 39 41 42 43 43 42 38 35 34 33 31 31 32 33 33 33 33 34 37 40 42 41 38 38
39 39 38 38 39 39 40 41 41 40 41 42 43 45 46 47 48 49 50 49 49 49 48 48 49 49 48 47 47 46 46 46 45 45 43 41 40 39 37 36 34 31 30 28 27 28 29 29 28 27 25 25 24 23 23 24 24 26 27 28 30 32 33 34 36 38 41 42 42 41 39 36 35 34 34 35 35 34 35 37 40 42 42 40 38
38 36 35 34 34 36 38 40 41 42 43 44 45 46 47 47 48 49 50 49 49 49 49 49 50 49 48 47 47 45 44 44 43 42 41 40 39 38 37 35 33 32 30 29 27 27 28 28 28 27 26 25 24 23 23 23 23 24 25 26 26 27 27 27 29 30 33 36 39 42 42 42 41 38 37 37 37 37 37 38 39 41 42 41 39
35 32 30 26 26 32 35 35 38 40 42 45 46 47 48 48 48 48 48 48 47 46 46 46 46 46 46 46 45 44 43 41 40 39 39 39 39 38 37 35 33 32 30 29 28 27 27 26 26 26 26 25 24 24 23 23 24 24 24 23 22 24 25 25 25 26 27 29 32 35 37 39 40 39 38 39 39 40 40 40 39 40 41 41 39
32 28 26 25 29 36 36 34 36 38 40 42 44 46 46 46 46 46 45 45 44 43 42 41 40 40 40 40 41 41 40 40 39 39 39 39 39 38 37 35 33 31 29 28 27 27 26 25 24 25 25 26 25 25 24 24 24 24 25 23 22 22 23 23 24 24 25 27 29 32 34 36 38 38 39 39 39 40 41 41 40 40 40 40 39
Wind_Direction
291 293 294 295 295 295 296 297 297 297 297 296 296 296 296 296 296 295 296 296 297 296 295 297 298 299 300 301 302 302 301 303 303 302 300 298 297 296 298 301 303 305 305 306 307 306 307 306 303 302 301 298 297 301 304 307 310 314 317 316 314 313 312 311 310 308 306 304 304 304 305 306 305 305 304 303 302 301 298 291 286 283 280 275 271
291 292 293 293 293 294 294 295 295 295 296 296 296 296 296 295 295 295 295 295 294 293 293 293 294 294 295 296 298 299 300 300 300 299 298 298 298 297 298 300 301 303 303 304 306 306 306 305 301 300 298 296 297 300 304 308 311 316 318 316 314 313 312 311 309 306 304 304 304 304 305 304 304 304 303 302 301 299 294 287 284 282 278 273 269
291 291 291 291 291 292 293 293 293 295 296 296 296 295 294 295 295 294 293 293 294 293 293 293 292 292 292 293 295 297 297 297 296 296 297 297 298 297 297 298 299 301 302 304 306 306 306 303 300 298 296 294 296 301 304 307 312 317 318 315 313 312 311 310 308 306 304 304 304 304 304 303 303 302 301 300 298 295 289 284 283 280 277 272 268
290 290 290 290 291 291 292 292 293 294 294 294 293 292 293 293 294 293 292 293 294 294 295 294 292 292 294 295 296 297 298 297 295 294 296 296 297 298 297 296 298 300 301 303 305 306 305 302 298 295 294 293 296 302 304 307 313 317 317 315 313 312 311 309 307 306 305 304 304 303 302 302 301 300 300 298 295 292 285 283 281 278 276 271 267
289 289 289 290 290 290 290 291 292 293 292 292 291 291 291 291 291 292 291 292 293 294 294 294 294 294 295 297 297 297 298 298 295 294 296 297 297 298 297 296 298 301 302 302 304 304 303 299 295 293 292 293 297 302 304 307 313 317 317 314 312 311 309 308 306 306 305 304 304 302 301 301 300 299 297 295 292 288 283 281 279 276 275 271 267
287 287 288 288 288 289 290 291 291 292 291 291 291 291 290 290 289 290 290 291 292 293 293 293 294 294 295 296 297 298 298 298 297 296 297 298 298 297 295 295 296 300 302 302 303 302 300 295 292 291 291 293 298 301 304 308 312 316 315 312 310 310 308 306 306 306 306 304 303 301 300 300 299 298 295 292 288 285 282 280 276 275 275 270 266
286 286 286 287 288 289 290 291 291 291 290 290 290 289 289 288 288 288 289 291 292 292 293 294 294 295 296 296 297 298 297 297 299 299 299 300 298 297 297 297 298 300 302 302 302 299 296 291 289 290 291 295 298 301 304 308 312 314 313 310 309 308 306 305 307 308 305 303 301 300 300 299 299 296 292 289 285 283 281 277 275 275 275 270 266
285 285 285 287 288 289 290 290 290 289 289 288 288 288 287 287 287 288 288 289 291 292 293 293 294 295 296 296 297 298 297 298 300 300 300 300 299 299 300 300 300 301 301 301 299 295 290 287 288 289 292 296 299 302 306 309 311 312 310 307 307 306 304 306 308 307 304 302 301 300 300 299 297 294 289 286 284 282 279 275 274 275 274 269 266
284 284 285 286 287 288 288 288 288 288 288 287 287 286 286 286 287 287 288 289 290 291 292 292 293 295 295 296 297 297 297 298 299 299 300 300 300 300 301 302 301 300 299 298 295 289 286 285 286 289 293 297 300 304 307 309 310 309 306 304 305 304 304 306 307 304 301 301 300 299 299 298 295 291 286 284 283 281 276 273 273 275 273 268 265
283 284 285 285 286 286 286 287 287 287 287 287 286 286 286 287 287 287 288 288 289 290 291 292 293 294 295 296 296 296 297 297 298 299 300 301 302 302 302 301 299 299 296 293 288 284 284 284 286 289 294 298 302 305 307 308 308 305 302 302 303 302 303 306 305 301 300 300 299 299 298 296 292 287 284 283 283 279 274 272 273 275 272 268 265
283 284 284 284 284 285 285 286 286 286 287 287 287 288 288 288 288 288 288 289 289 290 291 292 293 294 295 295 295 296 297 297 298 299 300 301 302 302 301 299 296 295 291 286 283 282 282 283 285 289 295 299 302 305 306 307 305 301 298 299 301 301 302 304 302 300 300 299 298 298 296 293 289 284 282 283 282 277 273 272 275 275 272 267 265
282 282 283 283 283 284 284 284 285 285 286 287 288 289 289 288 288 287 288 289 289 290 291 292 293 293 294 294 295 296 297 298 298 299 300 301 301 300 297 295 294 291 286 282 280 280 281 282 286 292 297 300 303 304 306 306 302 297 296 297 299 300 301 301 299 299 299 297 297 296 294 290 286 281 281 283 278 274 273 273 276 276 273 267 263
281 281 282 282 282 283 283 283 284 285 286 287 288 288 288 287 287 287 288 288 289 289 290 291 292 293 293 294 295 296 296 297 298 298 299 300 299 297 292 290 290 289 285 282 280 279 280 284 290 295 298 300 302 304 305 303 299 295 295 296 297 297 299 298 297 297 297 296 295 294 290 287 282 278 282 283 275 272 272 274 277 277 274 267 263
280 280 281 281 282 282 283 283 284 286 287 287 287 287 286 286 286 287 288 288 288 289 290 291 291 292 293 294 294 295 296 297 297 297 298 298 296 293 289 285 286 287 285 283 280 280 283 288 293 296 298 300 302 304 304 300 296 295 294 294 294 295 296 296 295 296 295 294 294 291 286 283 277 276 284 284 276 271 271 274 278 278 274 267 263
280 280 281 282 282 283 284 285 285 286 286 286 286 286 286 286 286 287 287 288 289 290 290 291 291 292 293 293 294 294 295 296 296 296 296 295 292 289 286 284 285 285 284 282 281 281 285 289 292 295 298 300 301 303 300 297 295 294 293 293 293 293 294 293 293 295 294 293 292 287 282 279 273 274 284 285 278 272 271 275 278 279 274 267 263
280 281 282 282 283 283 284 285 285 286 286 286 286 286 286 287 288 288 288 289 290 290 291 291 291 292 292 293 293 294 295 294 294 294 294 292 289 286 284 283 283 282 281 281 280 281 284 287 291 294 297 299 300 300 297 295 294 293 291 292 291 291 292 291 292 293 292 291 289 282 277 275 270 271 281 285 279 274 272 275 278 279 275 268 264
280 281 282 282 283 284 284 284 284 285 285 286 287 287 287 288 289 289 290 291 291 291 291 291 292 292 293 293 293 293 293 293 292 291 291 288 285 282 281 279 277 275 276 277 278 280 282 286 290 293 295 297 298 296 295 294 292 291 291 290 288 289 291 289 290 291 289 289 286 279 273 270 267 268 277 282 280 275 273 274 276 277 275 269 265
281 281 282 282 282 282 282 283 283 283 284 285 286 287 288 288 288 289 291 291 291 291 292 292 292 292 293 293 292 292 291 290 289 288 286 284 282 280 279 277 275 274 273 274 277 279 283 286 288 291 294 295 294 294 294 290 289 290 289 287 286 288 291 289 288 288 285 285 283 276 270 266 265 266 273 279 279 275 273 274 274 274 273 269 265
280 280 280 281 281 281 281 282 283 283 284 284 285 286 287 287 287 288 289 290 291 291 291 292 292 292 292 292 291 290 289 288 286 285 283 281 279 278 278 278 277 277 276 277 279 281 283 285 287 290 291 292 293 293 290 287 289 290 288 286 285 289 291 288 286 285 282 282 279 273 268 264 263 265 271 277 278 275 273 273 273 272 271 268 264
279 279 280 280 281 281 282 282 283 283 284 284 284 285 285 285 286 287 287 288 289 290 290 291 290 290 290 290 289 288 286 285 284 282 280 278 277 278 279 279 280 280 280 280 281 282 283 285 287 288 289 293 294 289 287 289 291 290 289 286 287 290 290 286 283 281 279 277 274 270 266 263 262 265 271 277 277 273 272 272 272 271 269 266 263
279 279 280 280 281 281 282 282 283 283 283 283 284 284 284 284 285 285 286 287 288 289 289 289 289 289 289 288 287 285 284 283 282 280 277 276 276 277 279 280 283 283 283 283 283 284 285 286 286 286 291 295 292 285 286 291 292 291 290 288 289 290 287 284 280 277 276 272 269 267 265 262 262 265 273 277 274 271 271 271 271 270 268 265 262
279 279 280 280 281 281 282 282 282 283 283 283 283 283 283 284 284 285 285 286 287 288 288 288 288 288 287 286 284 283 282 281 281 278 276 275 275 276 279 282 286 288 287 285 286 287 287 286 285 288 293 294 288 284 286 291 293 292 291 291 290 288 285 281 277 274 273 269 264 264 263 262 261 266 275 276 271 270 271 271 271 269 266 264 261
279 280 280 281 281 282 282 283 283 283 282 282 282 282 282 282 283 284 284 285 286 287 287 287 286 286 285 284 283 282 282 281 281 279 276 275 275 277 280 285 290 291 289 286 286 286 287 287 287 291 294 292 286 284 288 292 294 293 291 290 288 285 281 277 274 271 271 267 260 260 261 261 262 267 275 274 269 272 273 271 269 266 264 262 259
280 280 281 281 282 282 283 283 282 282 282 281 281 280 280 280 281 282 283 283 284 285 287 286 285 285 284 283 282 282 283 282 281 279 278 277 278 279 280 284 288 290 288 285 285 285 287 289 291 293 294 290 284 285 291 294 295 293 290 287 285 281 277 274 270 269 270 265 258 257 258 260 263 267 274 273 270 275 275 271 267 264 261 259 257
280 281 281 282 283 283 283 283 282 281 280 279 279 278 279 279 280 280 280 281 281 283 285 286 286 286 285 284 283 283 283 283 283 281 281 280 280 280 279 282 286 287 284 283 286 286 287 291 292 294 293 288 283 286 292 295 295 292 287 284 281 277 273 271 267 267 269 264 256 255 256 259 262 267 273 274 273 276 275 270 266 263 259 257 256
281 282 282 283 284 284 283 282 280 278 277 276 276 276 277 277 277 277 278 278 280 282 283 284 285 285 285 284 284 284 283 284 283 283 283 283 283 281 281 282 284 284 282 283 287 288 290 293 293 293 292 288 284 286 291 293 293 289 285 282 279 275 271 268 266 266 267 262 255 253 256 258 260 265 272 276 275 276 275 270 267 263 258 256 254
282 283 284 285 285 284 284 282 278 275 274 274 274 274 274 274 274 275 275 276 278 280 281 282 283 283 283 284 284 284 285 285 284 284 284 284 284 284 285 284 282 282 282 284 288 290 292 293 292 292 290 288 287 288 289 291 292 288 284 280 277 273 269 267 266 266 266 261 255 253 255 257 259 263 271 277 275 275 275 273 269 263 258 256 254
284 285 286 286 285 284 282 278 275 276 277 277 276 275 274 274 274 274 275 276 277 279 279 280 281 281 282 283 284 285 285 285 285 284 284 284 284 285 286 283 280 281 282 285 288 290 291 291 291 290 289 289 289 289 289 289 289 287 283 280 276 272 269 268 266 265 264 260 255 254 254 256 260 263 270 276 274 273 275 274 270 265 259 256 253
285 288 291 288 282 276 271 268 271 276 280 280 279 276 275 274 274 275 275 275 276 277 277 277 278 279 279 281 282 283 284 284 285 284 284 284 284 284 283 282 282 283 285 287 289 291 291 290 290 289 289 290 289 288 288 287 287 286 281 278 275 271 268 266 264 263 261 258 255 254 254 257 260 264 270 274 272 271 273 273 270 266 260 256 254
287 293 292 283 276 270 266 267 272 276 278 280 279 277 276 275 274 274 274 275 276 277 277 276 276 277 278 279 280 281 282 283 284 284 283 283 284 282 281 283 285 287 288 288 289 289 289 288 288 288 289 289 288 287 286 286 286 283 278 276 273 269 265 262 261 260 259 256 254 254 255 256 259 263 268 269 268 269 271 270 268 265 261 256 254
288 290 279 272 272 271 269 271 274 277 278 279 278 277 276 275 274 274 275 275 276 276 276 276 276 277 278 279 280 281 282 284 285 284 282 282 282 281 282 284 286 287 287 287 287 287 286 286 287 289 291 292 290 287 285 284 283 279 276 273 269 264 261 260 258 256 256 255 254 254 254 254 258 262 263 262 263 265 267 266 265 265 263 259 254
279 269 263 266 270 271 274 276 276 276 277 278 277 275 274 274 273 274 275 275 275 275 275 275 276 277 278 280 281 283 285 286 285 281 280 281 280 280 282 284 285 285 284 285 285 286 286 288 292 295 297 296 292 289 286 282 279 276 273 271 266 259 256 258 257 253 253 253 253 254 255 256 259 261 258 258 260 262 263 263 264 266 266 262 256
274 264 261 264 267 270 274 276 276 275 275 276 275 274 273 273 273 273 274 274 274 274 275 275 278 281 282 284 286 287 285 283 280 279 280 279 278 279 281 283 283 280 281 284 286 289 293 296 299 302 303 298 291 289 288 282 278 275 271 267 262 255 252 254 255 254 253 253 254 255 257 259 261 258 254 256 258 260 262 263 265 267 266 263 258
278 272 267 266 268 271 273 274 274 273 274 274 273 273 272 272 272 272 272 271 271 272 274 275 279 286 287 287 290 288 282 279 278 278 277 275 277 280 282 284 282 282 288 291 293 298 302 304 306 307 306 299 290 289 288 282 277 273 268 263 257 252 250 251 253 254 255 256 257 258 258 259 259 254 252 254 257 259 262 264 266 267 265 263 259
278 276 272 269 270 271 273 274 274 274 274 274 273 272 271 270 270 270 269 268 269 270 271 274 276 281 283 281 283 281 274 272 273 274 274 275 280 284 289 290 289 293 299 301 302 307 309 308 309 309 306 300 294 292 287 280 276 270 264 258 251 249 250 251 253 254 256 257 258 258 257 256 254 250 249 252 256 258 261 265 266 266 265 261 258
278 276 273 272 272 272 273 275 275 274 273 273 272 272 271 270 268 268 267 265 267 266 263 268 270 270 274 272 272 272 268 268 270 272 276 281 284 284 287 291 295 300 304 306 308 310 310 308 307 306 303 298 296 295 288 280 274 267 260 254 248 246 248 252 255 257 257 258 258 257 256 254 251 249 248 252 257 259 263 266 265 263 263 261 257
274 274 273 274 274 274 273 273 273 273 273 272 271 270 270 271 269 267 266 264 264 261 257 262 265 265 268 267 266 267 266 269 272 273 278 282 285 285 286 290 296 301 304 307 309 310 309 306 303 302 301 298 296 296 291 282 272 265 259 253 247 245 247 251 254 256 257 257 257 256 255 253 252 250 250 253 258 261 264 264 261 260 261 259 257
265 270 272 273 272 272 272 272 272 272 272 272 272 272 272 272 270 268 267 265 263 259 255 257 260 264 266 266 266 267 267 270 273 275 279 282 284 286 288 292 295 298 300 303 305 306 305 301 299 300 301 300 296 294 291 282 271 265 258 251 246 244 247 252 253 254 254 254 254 254 254 254 254 254 254 256 258 260 262 260 256 257 258 257 258
264 269 271 270 269 269 271 273 273 273 272 273 274 275 275 273 272 270 270 269 267 263 258 256 259 264 265 266 268 269 270 273 274 276 278 280 283 285 287 290 292 294 297 300 303 303 300 295 291 289 293 298 297 293 289 282 273 265 256 248 244 245 249 253 254 255 256 256 255 255 255 255 256 256 257 258 258 259 259 255 253 255 255 254 257
268 269 269 269 269 270 271 273 273 273 273 273 273 272 271 271 271 271 271 270 269 266 262 258 259 262 264 267 270 271 272 274 276 277 278 279 281 283 285 288 291 294 296 299 302 300 294 287 275 272 281 290 290 285 283 281 277 267 255 247 247 250 252 253 255 257 258 259 259 258 257 256 256 256 257 258 258 257 255 253 253 253 253 254 257
272 271 271 271 271 271 271 271 271 271 271 270 270 269 268 268 270 271 273 272 270 268 265 263 261 262 264 267 269 271 273 275 277 278 280 280 282 283 286 288 291 294 296 298 299 294 285 276 269 270 276 280 277 273 274 276 277 270 257 249 250 254 255 254 254 255 257 260 260 259 257 256 255 255 256 256 256 255 253 252 254 255 254 255 258
275 274 275 275 275 274 272 272 271 271 272 273 273 273 273 272 272 273 273 274 273 272 271 270 268 268 268 269 271 273 274 276 278 280 282 283 284 286 287 289 291 293 295 296 294 288 280 273 270 270 273 274 272 270 269 272 274 271 262 254 253 256 258 256 255 255 258 260 259 257 256 255 254 254 254 254 254 254 253 253 256 256 255 254 255
276 276 276 276 274 272 271 271 270 270 271 273 275 277 278 278 277 276 275 274 273 273 273 273 272 272 271 271 272 274 275 278 280 282 284 285 287 288 289 290 292 293 293 291 287 282 279 276 273 273 273 272 269 265 263 266 270 269 264 261 258 258 258 258 257 256 259 262 259 255 254 253 253 254 255 255 255 255 255 255 256 255 252 251 253
274 274 273 272 270 269 268 269 269 268 268 269 271 272 273 274 275 274 273 272 271 270 270 270 270 271 272 273 273 274 277 279 282 283 284 286 287 288 289 290 291 290 288 285 282 280 280 279 276 275 274 273 269 264 261 262 265 265 264 263 262 260 259 258 257 256 259 262 258 254 252 252 253 256 257 258 257 257 257 255 252 251 249 249 251
270 270 271 270 269 268 268 268 269 270 270 271 271 270 269 269 269 269 267 267 267 267 267 268 269 271 273 275 277 279 280 282 283 284 284 285 286 286 287 288 287 286 284 282 281 281 282 282 279 276 276 276 274 269 264 262 262 263 263 263 261 260 259 258 257 255 257 260 257 255 255 256 256 257 258 259 260 260 259 256 251 248 247 248 250
269 269 268 268 270 271 272 272 272 271 271 271 271 271 270 268 267 267 265 265 265 265 266 268 269 271 274 277 280 282 283 283 283 284 284 284 285 285 284 283 282 281 282 283 283 283 283 283 281 279 278 279 278 275 271 267 264 263 261 260 259 257 257 256 255 253 253 255 256 255 257 259 258 257 257 258 259 260 260 260 255 250 246 246 250
267 267 268 269 271 273 275 276 275 274 272 271 270 270 269 268 267 267 266 266 266 266 267 268 270 272 274 277 280 282 283 283 283 284 284 284 284 283 281 279 278 278 281 284 286 286 286 284 282 280 280 281 281 280 277 273 269 266 263 261 259 257 257 256 256 254 251 250 251 251 253 255 255 254 255 256 258 259 261 260 255 251 248 246 250
267 268 269 272 274 276 277 276 275 273 272 271 270 269 268 268 267 267 268 268 268 268 268 269 271 273 275 276 278 280 281 282 283 283 283 283 282 280 278 277 276 277 279 283 286 288 287 284 281 279 280 281 283 282 280 276 272 270 267 264 262 260 259 258 257 256 253 249 247 248 250 251 250 250 252 254 256 258 260 258 253 251 250 248 249
268 270 272 276 280 280 277 274 273 272 272 272 271 271 271 271 271 271 272 271 271 271 271 272 273 275 276 276 276 277 278 278 279 280 279 279 278 277 276 276 276 277 278 281 283 286 286 283 279 278 279 280 282 283 281 277 274 271 268 266 265 264 261 258 256 256 254 251 247 247 248 249 250 249 249 249 251 254 255 253 251 251 250 249 250
267 268 271 270 266 264 266 269 272 274 274 273 272 272 273 274 274 275 274 274 274 274 274 274 275 275 276 276 276 276 275 275 274 273 272 273 274 275 275 276 276 277 279 280 281 283 284 283 279 276 277 279 280 281 281 279 276 273 270 268 267 264 261 258 256 255 254 252 247 243 243 246 248 247 245 246 248 250 250 250 251 253 253 252 252
265 263 260 250 242 247 255 261 267 272 274 274 273 273 274 274 274 274 274 275 275 275 275 274 274 275 276 276 276 276 274 271 269 267 266 267 270 272 273 274 275 277 278 279 280 282 283 284 282 279 277 277 278 280 280 280 278 275 273 270 266 264 264 261 258 255 253 251 246 239 236 240 243 244 244 244 245 246 247 247 248 251 253 254 254
Height
10873 10873 10873 10872 10871 10871 10872 10872 10872 10872 10872 10871 10870 10868 10867 10866 10864 10864 10864 10864 10863 10863 10863 10862 10860 10859 10858 10857 10856 10855 10853 10852 10850 10849 10848 10847 10846 10845 10844 10843 10843 10843 10842 10842 10842 10842 10841 10840 10838 10836 10835 10834 10832 10830 10829 10828 10827 10826 10824 10822 10821 10819 10817 10815 10813 10811 10810 10809 10809 10808 10806 10805 10804 10804 10803 10802 10801 10800 10799 10799 10799 10799 10798 10798 10798
10868 10868 10868 10867 10866 10866 10866 10866 10866 10866 10866 10866 10865 10863 10862 10860 10859 10859 10859 10859 10858 10858 10858 10857 10857 10856 10855 10854 10853 10852 10850 10849 10847 10845 10844 10843 10842 10841 10840 10839 10839 10839 10838 10838 10838 10837 10837 10835 10834 10832 10831 10830 10828 10826 10825 10824 10823 10822 10820 10818 10817 10815 10813 10811 10809 10808 10807 10806 10805 10804 10803 10802 10801 10800 10800 10799 10798 10797 10797 10797 10797 10796 10796 10796 10796
10865 10864 10863 10863 10861 10861 10861 10861 10861 10861 10861 10860 10859 10858 10857 10855 10855 10854 10853 10853 10853 10853 10852 10852 10852 10852 10850 10849 10849 10848 10847 10846 10844 10842 10840 10839 10838 10837 10836 10835 10835 10835 10834 10834 10833 10833 10832 10831 10829 10828 10826 10825 10823 10821 10820 10819 10819 10817 10816 10814 10813 10811 10809 10808 10806 10805 10803 10802 10801 10801 10799 10798 10798 10797 10797 10796 10795 10795 10795 10794 10794 10794 10794 10794 10794
10861 10860 10859 10858 10857 10856 10856 10856 10856 10856 10856 10855 10853 10853 10852 10851 10850 10849 10848 10848 10848 10848 10847 10847 10847 10847 10846 10846 10845 10844 10843 10842 10840 10838 10836 10835 10833 10832 10831 10830 10830 10830 10829 10829 10829 10828 10828 10826 10825 10823 10822 10821 10819 10817 10816 10815 10814 10813 10812 10811 10809 10808 10806 10804 10803 10802 10800 10799 10797 10797 10796 10795 10795 10794 10794 10793 10793 10792 10792 10792 10792 10792 10792 10792 10792
10856 10855 10853 10853 10852 10851 10851 10851 10851 10851 10850 10849 10848 10847 10847 10846 10844 10843 10843 10843 10843 10843 10842 10842 10842 10842 10842 10841 10841 10839 10838 10837 10836 10834 10832 10830 10829 10828 10826 10825 10825 10825 10824 10824 10824 10823 10823 10822 10820 10819 10817 10816 10815 10813 10811 10811 10810 10809 10808 10807 10806 10804 10803 10801 10800 10799 10797 10795 10794 10793 10793 10792 10792 10792 10791 10791 10790 10790 10790 10790 10790 10790 10790 10790 10790
10852 10850 10848 10847 10846 10845 10846 10846 10845 10844 10843 10843 10842 10842 10841 10840 10839 10838 10838 10838 10838 10837 10837 10837 10837 10837 10837 10837 10836 10834 10832 10831 10830 10829 10827 10825 10823 10822 10821 10820 10820 10819 10819 10819 10819 10818 10818 10817 10815 10814 10813 10812 10810 10809 10807 10806 10805 10805 10805 10804 10802 10801 10799 10798 10797 10796 10793 10791 10790 10790 10790 10790 10789 10789 10788 10788 10788 10788 10788 10788 10788 10788 10788 10788 10788
10847 10845 10842 10841 10840 10839 10839 10840 10839 10839 10838 10836 10836 10837 10836 10835 10834 10833 10833 10833 10832 10832 10832 10832 10832 10831 10832 10831 10830 10828 10826 10826 10824 10823 10821 10820 10818 10816 10816 10815 10814 10814 10813 10814 10814 10813 10813 10812 10810 10809 10808 10807 10806 10804 10803 10802 10801 10801 10801 10800 10799 10797 10795 10795 10794 10792 10790 10789 10787 10787 10787 10787 10787 10786 10786 10785 10786 10786 10786 10786 10786 10786 10786 10786 10786
10842 10840 10838 10837 10836 10834 10832 10832 10832 10833 10832 10831 10830 10830 10829 10829 10829 10828 10828 10828 10827 10827 10827 10826 10826 10826 10826 10826 10824 10822 10821 10820 10819 10817 10816 10815 10812 10811 10810 10810 10809 10808 10808 10809 10809 10809 10808 10807 10806 10805 10803 10803 10802 10800 10798 10797 10797 10797 10797 10797 10795 10793 10792 10791 10790 10789 10787 10786 10785 10784 10784 10784 10784 10784 10783 10783 10783 10783 10784 10784 10784 10784 10784 10784 10784
10835 10834 10834 10833 10832 10830 10828 10826 10825 10826 10826 10824 10823 10823 10823 10823 10823 10823 10822 10822 10823 10823 10822 10821 10821 10821 10821 10821 10819 10817 10815 10814 10813 10811 10811 10809 10807 10805 10804 10804 10803 10803 10803 10804 10804 10803 10802 10802 10801 10800 10799 10798 10797 10796 10794 10793 10792 10793 10793 10793 10792 10789 10788 10787 10787 10786 10785 10784 10782 10781 10781 10781 10781 10781 10781 10781 10781 10781 10781 10782 10782 10782 10782 10782 10783
10829 10829 10829 10829 10828 10826 10823 10821 10820 10818 10818 10816 10814 10816 10817 10817 10817 10817 10817 10817 10817 10817 10816 10816 10816 10816 10816 10815 10813 10811 10809 10808 10808 10806 10804 10803 10801 10799 10798 10798 10798 10798 10798 10798 10799 10798 10797 10797 10797 10796 10795 10794 10792 10791 10790 10789 10788 10788 10789 10790 10788 10786 10784 10784 10783 10783 10782 10781 10780 10779 10778 10778 10778 10778 10778 10778 10778 10779 10779 10780 10780 10780 10780 10780 10781
10825 10824 10824 10823 10822 10820 10817 10815 10814 10811 10811 10809 10806 10809 10809 10808 10809 10809 10810 10811 10811 10811 10810 10810 10810 10810 10809 10808 10807 10805 10803 10802 10801 10800 10798 10797 10796 10794 10793 10793 10793 10793 10793 10793 10793 10793 10792 10792 10792 10791 10790 10789 10788 10787 10786 10785 10783 10783 10784 10786 10785 10782 10781 10780 10779 10779 10779 10778 10777 10776 10775 10775 10775 10775 10776 10776 10776 10776 10777 10777 10778 10778 10778 10778 10779
10820 10819 10819 10818 10816 10814 10812 10810 10808 10805 10804 10804 10802 10802 10801 10800 10799 10801 10803 10804 10804 10804 10804 10804 10804 10804 10803 10802 10800 10799 10797 10796 10794 10794 10792 10791 10790 10789 10788 10788 10788 10788 10788 10788 10788 10788 10788 10787 10787 10787 10785 10784 10783 10782 10781 10780 10778 10778 10779 10781 10782 10779 10777 10776 10776 10776 10776 10775 10774 10773 10772 10772 10772 10772 10773 10773 10773 10774 10774 10775 10775 10776 10776 10776 10777
10814 10812 10812 10811 10811 10809 10807 10805 10802 10800 10799 10798 10798 10796 10794 10793 10791 10792 10795 10797 10797 10798 10798 10798 10798 10797 10796 10795 10794 10793 10791 10790 10789 10788 10787 10786 10785 10784 10783 10783 10783 10783 10783 10783 10783 10784 10784 10783 10782 10782 10781 10780 10779 10778 10777 10775 10773 10773 10774 10776 10778 10777 10775 10772 10772 10772 10772 10772 10771 10770 10770 10769 10769 10769 10770 10770 10771 10771 10772 10773 10773 10773 10774 10774 10774
10806 10805 10805 10804 10804 10801 10800 10799 10797 10796 10793 10791 10791 10789 10787 10785 10784 10785 10788 10789 10790 10791 10792 10792 10791 10791 10790 10789 10788 10787 10785 10784 10782 10782 10781 10781 10780 10778 10778 10778 10778 10778 10778 10778 10778 10779 10780 10779 10778 10777 10776 10775 10774 10773 10772 10769 10768 10767 10769 10771 10773 10773 10772 10770 10768 10768 10768 10769 10768 10767 10767 10766 10767 10767 10767 10767 10768 10769 10770 10770 10771 10771 10771 10772 10772
10797 10797 10797 10797 10797 10794 10793 10793 10791 10789 10787 10784 10783 10782 10779 10776 10775 10777 10779 10781 10783 10784 10785 10785 10784 10784 10783 10782 10781 10780 10779 10778 10776 10776 10775 10775 10774 10774 10773 10773 10773 10773 10773 10773 10774 10775 10776 10775 10774 10773 10772 10771 10770 10769 10767 10764 10763 10762 10764 10767 10768 10769 10768 10767 10765 10764 10764 10765 10765 10764 10764 10764 10764 10764 10764 10764 10765 10766 10767 10768 10768 10768 10769 10769 10770
10790 10790 10789 10790 10790 10788 10786 10787 10784 10781 10779 10776 10774 10773 10770 10768 10766 10765 10768 10773 10775 10776 10777 10777 10777 10777 10776 10775 10775 10773 10773 10772 10770 10770 10770 10769 10769 10769 10768 10768 10768 10768 10768 10768 10768 10769 10770 10771 10770 10768 10768 10767 10766 10765 10762 10760 10758 10758 10759 10762 10764 10764 10764 10764 10763 10761 10761 10761 10762 10761 10761 10761 10761 10761 10762 10762 10762 10763 10764 10765 10765 10766 10766 10767 10767
10784 10783 10783 10783 10784 10782 10779 10778 10778 10775 10772 10769 10766 10764 10762 10761 10758 10753 10756 10763 10766 10767 10768 10769 10769 10769 10768 10768 10767 10767 10766 10765 10765 10764 10764 10764 10764 10764 10764 10763 10763 10763 10762 10762 10763 10764 10765 10766 10766 10764 10763 10763 10762 10760 10758 10755 10754 10753 10754 10757 10759 10760 10760 10760 10760 10759 10758 10757 10758 10758 10758 10758 10758 10758 10759 10759 10759 10760 10761 10762 10762 10763 10764 10764 10764
10778 10777 10776 10776 10777 10776 10772 10771 10771 10769 10768 10765 10761 10758 10756 10755 10753 10747 10747 10751 10755 10758 10759 10760 10760 10760 10760 10760 10760 10760 10760 10759 10758 10758 10758 10758 10758 10758 10758 10758 10757 10757 10757 10757 10757 10759 10760 10761 10762 10761 10760 10759 10758 10756 10754 10751 10749 10749 10749 10751 10754 10755 10755 10756 10756 10756 10755 10754 10754 10754 10755 10755 10755 10755 10755 10756 10756 10756 10757 10758 10759 10760 10760 10761 10761
10771 10770 10768 10768 10769 10769 10766 10765 10764 10763 10762 10760 10757 10755 10751 10748 10747 10744 10742 10743 10745 10748 10750 10751 10752 10752 10753 10753 10753 10753 10753 10753 10752 10752 10752 10752 10752 10752 10753 10753 10752 10751 10751 10752 10752 10753 10754 10756 10757 10757 10756 10755 10754 10752 10749 10747 10746 10744 10744 10746 10749 10750 10751 10752 10753 10753 10752 10750 10750 10750 10751 10751 10752 10752 10752 10752 10753 10753 10753 10754 10756 10756 10757 10758 10758
10763 10762 10761 10760 10761 10761 10760 10759 10758 10757 10755 10753 10752 10750 10746 10743 10741 10740 10738 10737 10738 10741 10743 10744 10745 10745 10746 10746 10746 10746 10746 10747 10747 10747 10747 10746 10747 10747 10747 10747 10747 10746 10746 10746 10746 10747 10749 10750 10751 10752 10752 10751 10750 10748 10745 10744 10742 10740 10740 10741 10743 10745 10746 10747 10748 10749 10748 10747 10746 10746 10747 10748 10749 10749 10749 10749 10749 10750 10750 10751 10752 10753 10754 10754 10755
10756 10755 10754 10753 10753 10753 10753 10753 10751 10750 10748 10746 10745 10743 10739 10737 10735 10733 10733 10732 10732 10734 10735 10736 10737 10738 10739 10739 10739 10739 10740 10741 10741 10741 10741 10741 10742 10742 10743 10742 10741 10741 10740 10740 10740 10741 10743 10745 10746 10747 10747 10747 10746 10744 10742 10740 10738 10736 10735 10736 10738 10739 10741 10742 10743 10744 10744 10744 10743 10742 10743 10744 10745 10746 10746 10746 10746 10746 10747 10747 10748 10749 10750 10751 10751
10749 10748 10747 10746 10746 10745 10745 10745 10744 10742 10741 10739 10738 10735 10731 10730 10728 10726 10726 10725 10725 10726 10728 10729 10729 10730 10731 10732 10732 10733 10734 10735 10736 10736 10736 10736 10737 10738 10738 10738 10736 10735 10734 10734 10735 10736 10737 10739 10741 10742 10742 10742 10742 10740 10738 10736 10734 10731 10730 10731 10732 10734 10735 10737 10738 10738 10739 10740 10739 10738 10739 10740 10742 10742 10742 10742 10742 10743 10743 10743 10744 10745 10746 10747 10748
10742 10740 10739 10739 10738 10738 10738 10737 10736 10734 10732 10731 10730 10729 10725 10722 10720 10719 10718 10718 10717 10718 10720 10722 10723 10724 10724 10725 10726 10727 10729 10730 10730 10730 10730 10731 10733 10734 10735 10734 10731 10729 10729 10729 10729 10731 10732 10734 10736 10737 10737 10737 10737 10736 10734 10732 10729 10727 10724 10725 10727 10728 10729 10731 10732 10733 10735 10736 10736 10735 10735 10736 10737 10738 10739 10739 10739 10739 10739 10739 10740 10740 10742 10743 10744
10734 10732 10731 10731 10731 10731 10730 10728 10726 10724 10723 10722 10720 10719 10717 10715 10714 10713 10712 10712 10711 10711 10712 10714 10716 10717 10718 10719 10720 10721 10723 10724 10725 10725 10725 10726 10728 10730 10730 10729 10727 10725 10724 10724 10725 10726 10727 10729 10730 10731 10732 10732 10732 10732 10730 10728 10725 10722 10719 10719 10721 10723 10724 10725 10727 10728 10730 10732 10733 10732 10732 10732 10733 10734 10735 10735 10735 10735 10735 10735 10736 10736 10737 10738 10740
10725 10724 10724 10724 10724 10723 10721 10718 10716 10714 10713 10712 10711 10710 10709 10708 10707 10707 10706 10705 10705 10706 10705 10706 10708 10710 10711 10712 10714 10716 10717 10718 10719 10719 10720 10721 10722 10724 10724 10724 10722 10721 10721 10720 10720 10721 10721 10723 10724 10725 10726 10727 10728 10727 10726 10723 10721 10718 10714 10713 10715 10717 10718 10720 10721 10723 10725 10727 10728 10729 10729 10729 10729 10730 10731 10731 10732 10732 10731 10732 10732 10732 10733 10734 10735
10717 10716 10717 10718 10717 10715 10711 10707 10705 10704 10703 10702 10702 10702 10702 10701 10701 10700 10700 10700 10700 10701 10700 10701 10702 10703 10705 10707 10708 10710 10712 10713 10713 10714 10715 10716 10716 10717 10718 10718 10717 10716 10716 10715 10715 10715 10716 10717 10717 10719 10721 10722 10722 10722 10721 10718 10716 10713 10710 10708 10709 10712 10713 10714 10716 10718 10720 10722 10724 10725 10726 10725 10725 10726 10727 10728 10728 10728 10728 10728 10728 10729 10729 10730 10731
10710 10710 10711 10711 10710 10707 10702 10696 10692 10692 10693 10694 10695 10696 10696 10695 10695 10695 10695 10695 10695 10696 10696 10697 10698 10698 10700 10701 10703 10705 10706 10707 10707 10708 10709 10710 10711 10711 10712 10712 10711 10710 10711 10710 10710 10710 10710 10711 10712 10713 10715 10716 10716 10716 10715 10714 10711 10708 10705 10703 10703 10706 10707 10709 10711 10713 10715 10717 10719 10721 10722 10722 10721 10722 10723 10724 10724 10724 10725 10725 10725 10725 10726 10727 10728
10704 10705 10706 10705 10703 10699 10693 10687 10681 10682 10687 10688 10689 10689 10689 10689 10689 10690 10690 10690 10691 10691 10691 10692 10693 10694 10695 10696 10698 10700 10701 10701 10701 10702 10704 10705 10706 10706 10707 10706 10705 10705 10705 10705 10705 10705 10705 10706 10706 10707 10709 10710 10710 10709 10709 10708 10706 10703 10700 10698 10698 10700 10702 10703 10705 10707 10709 10712 10714 10717 10718 10718 10718 10718 10719 10720 10720 10721 10721 10721 10721 10722 10722 10723 10724
10701 10703 10703 10698 10694 10690 10684 10679 10675 10676 10681 10682 10683 10683 10683 10683 10683 10684 10684 10685 10685 10685 10686 10687 10688 10689 10690 10692 10694 10695 10696 10696 10696 10697 10698 10699 10700 10701 10701 10700 10699 10699 10699 10700 10700 10700 10700 10700 10701 10702 10703 10703 10704 10703 10702 10702 10701 10698 10696 10694 10693 10694 10696 10698 10700 10702 10704 10707 10710 10712 10714 10714 10714 10715 10716 10716 10716 10717 10717 10718 10718 10718 10719 10720 10721
10700 10703 10701 10689 10681 10681 10678 10674 10672 10672 10674 10676 10677 10678 10677 10678 10677 10677 10678 10679 10680 10680 10681 10682 10683 10684 10686 10688 10689 10691 10691 10691 10692 10692 10693 10693 10695 10697 10696 10694 10693 10694 10694 10695 10695 10695 10695 10695 10696 10696 10697 10697 10697 10697 10696 10695 10694 10693 10691 10690 10689 10689 10690 10692 10694 10697 10699 10702 10705 10707 10709 10710 10710 10711 10712 10712 10712 10713 10713 10714 10715 10715 10716 10717 10718
10700 10700 10692 10678 10671 10674 10674 10671 10670 10668 10668 10669 10671 10672 10672 10672 10671 10671 10672 10674 10675 10675 10676 10677 10679 10680 10681 10683 10684 10685 10687 10687 10687 10687 10687 10687 10689 10690 10690 10689 10688 10688 10688 10689 10690 10690 10691 10691 10691 10692 10691 10691 10690 10689 10689 10688 10687 10686 10685 10685 10685 10684 10684 10686 10689 10692 10694 10697 10700 10702 10704 10705 10706 10707 10708 10708 10708 10709 10709 10710 10711 10712 10712 10713 10714
10696 10689 10676 10667 10664 10667 10669 10668 10666 10664 10663 10663 10665 10666 10667 10666 10665 10666 10667 10669 10670 10671 10672 10673 10675 10676 10677 10679 10679 10680 10682 10682 10681 10680 10681 10682 10682 10683 10684 10683 10683 10683 10683 10684 10686 10687 10687 10688 10688 10687 10686 10685 10683 10682 10682 10681 10681 10680 10680 10680 10680 10681 10680 10681 10684 10687 10689 10692 10695 10697 10699 10701 10702 10703 10704 10704 10704 10705 10706 10707 10708 10709 10709 10710 10711
10685 10679 10669 10661 10659 10661 10664 10664 10661 10660 10659 10658 10659 10660 10660 10661 10660 10661 10662 10664 10665 10667 10668 10669 10671 10671 10673 10674 10674 10675 10677 10676 10675 10676 10677 10677 10677 10678 10679 10679 10678 10677 10680 10682 10683 10683 10683 10683 10683 10682 10680 10678 10676 10675 10675 10674 10674 10674 10674 10675 10676 10677 10677 10678 10680 10682 10685 10687 10690 10692 10694 10696 10698 10699 10700 10701 10701 10702 10702 10703 10704 10705 10706 10707 10708
10672 10670 10665 10658 10655 10657 10658 10657 10656 10654 10654 10654 10654 10654 10655 10655 10656 10657 10658 10660 10661 10663 10664 10665 10667 10668 10668 10670 10670 10671 10672 10670 10671 10672 10672 10672 10672 10673 10674 10675 10673 10671 10675 10678 10679 10679 10678 10676 10676 10676 10674 10672 10670 10669 10668 10668 10668 10669 10669 10670 10671 10672 10673 10674 10676 10678 10680 10683 10685 10687 10689 10691 10693 10695 10696 10697 10698 10698 10699 10700 10701 10702 10703 10704 10704
10661 10659 10656 10652 10651 10650 10650 10650 10650 10649 10648 10648 10648 10648 10649 10650 10651 10652 10654 10655 10656 10659 10660 10661 10664 10665 10665 10667 10667 10668 10669 10667 10667 10667 10667 10668 10668 10669 10670 10670 10670 10668 10669 10672 10673 10673 10672 10670 10669 10668 10668 10666 10664 10663 10663 10662 10662 10663 10664 10665 10666 10668 10669 10671 10672 10674 10676 10678 10680 10682 10684 10687 10689 10690 10692 10693 10694 10694 10695 10696 10697 10698 10699 10700 10701
10650 10650 10646 10644 10644 10644 10644 10643 10643 10642 10642 10642 10642 10642 10643 10645 10647 10648 10649 10650 10652 10655 10656 10657 10660 10661 10662 10664 10664 10665 10665 10665 10665 10664 10664 10664 10665 10666 10666 10666 10666 10666 10665 10667 10668 10668 10667 10665 10663 10663 10662 10661 10660 10659 10658 10658 10658 10658 10660 10661 10663 10664 10666 10667 10668 10670 10671 10673 10675 10677 10680 10682 10684 10686 10687 10688 10690 10690 10691 10692 10694 10695 10695 10696 10697
10644 10643 10639 10637 10637 10638 10638 10637 10636 10636 10636 10636 10637 10637 10638 10640 10642 10643 10644 10646 10648 10650 10651 10653 10655 10656 10657 10659 10660 10661 10661 10661 10661 10660 10660 10661 10661 10661 10662 10663 10663 10663 10663 10664 10664 10665 10662 10658 10657 10657 10657 10657 10655 10655 10654 10654 10654 10654 10655 10657 10659 10661 10662 10664 10665 10666 10667 10669 10671 10673 10675 10677 10679 10681 10683 10684 10685 10686 10687 10688 10689 10691 10691 10692 10693
10640 10638 10636 10633 10631 10632 10632 10631 10631 10631 10631 10631 10631 10633 10634 10635 10637 10638 10640 10641 10643 10645 10647 10648 10650 10651 10652 10654 10655 10656 10656 10656 10657 10656 10656 10657 10657 10658 10659 10659 10660 10660 10660 10661 10661 10661 10658 10654 10651 10650 10651 10653 10652 10651 10650 10650 10650 10651 10651 10653 10655 10657 10659 10660 10661 10662 10664 10666 10668 10669 10671 10673 10675 10676 10678 10679 10681 10682 10683 10683 10685 10686 10687 10688 10689
10639 10636 10633 10630 10628 10627 10626 10626 10626 10626 10626 10627 10627 10629 10629 10631 10632 10634 10635 10637 10639 10641 10642 10644 10645 10646 10647 10648 10650 10650 10651 10652 10652 10652 10652 10653 10653 10654 10655 10656 10656 10656 10656 10656 10656 10655 10653 10653 10650 10645 10645 10648 10648 10647 10646 10646 10647 10647 10648 10650 10652 10653 10655 10656 10657 10658 10660 10662 10663 10665 10667 10668 10670 10672 10673 10674 10676 10677 10678 10679 10681 10682 10683 10684 10685
10635 10632 10629 10626 10625 10624 10623 10623 10622 10622 10622 10623 10624 10624 10625 10626 10628 10629 10631 10633 10635 10636 10638 10639 10640 10641 10642 10643 10644 10646 10646 10647 10647 10647 10648 10649 10650 10650 10651 10652 10651 10651 10651 10651 10651 10650 10648 10648 10646 10642 10642 10646 10645 10642 10642 10643 10644 10644 10645 10646 10647 10649 10650 10651 10653 10655 10656 10657 10659 10660 10662 10663 10665 10667 10668 10669 10670 10672 10673 10674 10676 10677 10678 10680 10681
10628 10627 10624 10623 10621 10620 10620 10619 10618 10618 10618 10619 10620 10621 10622 10623 10624 10625 10627 10629 10630 10632 10633 10634 10635 10636 10637 10639 10640 10641 10642 10642 10642 10642 10643 10644 10645 10646 10647 10648 10647 10646 10646 10645 10645 10645 10644 10642 10641 10640 10641 10645 10643 10638 10638 10639 10640 10641 10642 10642 10643 10644 10646 10647 10649 10651 10652 10653 10655 10656 10657 10659 10660 10662 10663 10664 10665 10667 10668 10670 10671 10672 10673 10674 10676
10622 10621 10620 10619 10618 10617 10616 10615 10615 10614 10614 10615 10616 10617 10618 10620 10621 10622 10624 10625 10626 10628 10629 10630 10631 10632 10633 10634 10635 10636 10637 10637 10637 10637 10637 10638 10639 10641 10642 10643 10642 10642 10641 10640 10640 10640 10639 10638 10637 10637 10637 10641 10640 10636 10635 10636 10636 10637 10638 10639 10640 10641 10642 10643 10645 10647 10648 10650 10651 10652 10653 10654 10655 10656 10658 10659 10660 10662 10663 10665 10666 10667 10668 10669 10670
10617 10617 10616 10615 10614 10612 10612 10612 10612 10612 10612 10613 10613 10614 10615 10617 10618 10620 10622 10623 10624 10625 10626 10626 10627 10627 10628 10630 10631 10632 10633 10633 10633 10633 10633 10633 10633 10635 10636 10637 10637 10637 10636 10635 10635 10634 10634 10633 10633 10633 10633 10634 10635 10633 10631 10631 10632 10633 10634 10635 10636 10637 10638 10639 10641 10643 10645 10646 10647 10648 10650 10650 10650 10651 10653 10654 10655 10657 10658 10659 10661 10662 10662 10663 10665
10613 10612 10612 10611 10610 10609 10609 10609 10610 10611 10611 10611 10612 10612 10613 10615 10616 10618 10620 10621 10622 10622 10622 10623 10623 10623 10623 10624 10626 10628 10629 10629 10629 10629 10629 10628 10628 10629 10630 10631 10631 10632 10631 10630 10630 10629 10629 10628 10629 10630 10629 10629 10629 10629 10628 10628 10628 10628 10629 10630 10632 10633 10634 10635 10637 10639 10641 10642 10643 10644 10646 10646 10646 10648 10649 10650 10650 10652 10653 10653 10655 10656 10657 10658 10660
10609 10608 10608 10608 10607 10607 10607 10608 10608 10609 10609 10609 10610 10611 10611 10613 10614 10616 10617 10618 10619 10619 10619 10619 10619 10619 10619 10619 10621 10622 10624 10624 10624 10624 10624 10624 10624 10624 10625 10625 10626 10626 10626 10625 10625 10624 10624 10624 10624 10625 10625 10625 10624 10624 10624 10624 10624 10625 10625 10626 10627 10628 10629 10630 10632 10635 10637 10637 10638 10639 10641 10642 10643 10644 10645 10645 10646 10646 10647 10647 10649 10650 10652 10654 10655
10605 10605 10604 10605 10605 10605 10606 10607 10607 10608 10608 10607 10608 10608 10608 10609 10609 10611 10612 10613 10614 10615 10615 10615 10615 10615 10615 10615 10616 10616 10617 10619 10619 10619 10620 10620 10620 10620 10621 10621 10621 10621 10621 10620 10620 10620 10620 10619 10620 10620 10621 10620 10620 10619 10620 10619 10620 10620 10621 10621 10622 10623 10623 10625 10627 10629 10632 10633 10633 10634 10636 10637 10638 10639 10639 10640 10641 10641 10642 10643 10644 10646 10648 10649 10651
10601 10601 10601 10603 10603 10604 10605 10605 10605 10606 10605 10605 10605 10604 10604 10603 10604 10604 10606 10608 10608 10609 10610 10610 10610 10611 10612 10612 10612 10611 10611 10612 10613 10613 10614 10615 10615 10616 10616 10616 10616 10616 10616 10616 10616 10615 10615 10615 10615 10615 10615 10616 10615 10615 10615 10615 10615 10615 10616 10616 10616 10617 10618 10620 10621 10623 10626 10629 10628 10628 10630 10632 10632 10633 10634 10635 10636 10637 10638 10639 10640 10641 10643 10646 10648
10597 10598 10599 10601 10602 10602 10602 10602 10602 10601 10601 10600 10599 10598 10598 10598 10598 10598 10600 10602 10603 10604 10605 10604 10604 10605 10607 10607 10607 10607 10606 10606 10606 10607 10608 10609 10610 10610 10611 10611 10612 10612 10612 10612 10612 10611 10611 10611 10610 10610 10611 10611 10611 10611 10611 10611 10611 10611 10611 10611 10611 10612 10614 10615 10615 10616 10618 10621 10622 10623 10625 10626 10627 10629 10629 10630 10631 10632 10634 10635 10636 10637 10639 10642 10645
10594 10596 10598 10600 10600 10598 10596 10595 10595 10596 10595 10594 10593 10593 10593 10593 10593 10594 10595 10597 10598 10599 10600 10600 10599 10600 10601 10601 10601 10602 10602 10602 10602 10601 10602 10603 10604 10605 10605 10606 10606 10607 10607 10607 10607 10607 10607 10607 10606 10606 10606 10607 10607 10608 10608 10608 10608 10608 10607 10607 10608 10608 10609 10610 10611 10611 10612 10614 10616 10617 10619 10620 10622 10624 10624 10625 10626 10628 10630 10631 10632 10633 10635 10638 10641
10593 10596 10597 10597 10593 10588 10587 10589 10590 10591 10590 10589 10589 10588 10588 10589 10589 10589 10590 10591 10592 10594 10595 10595 10595 10595 10595 10594 10594 10595 10596 10597 10597 10597 10597 10598 10598 10599 10600 10601 10601 10602 10602 10603 10603 10603 10603 10603 10603 10602 10602 10603 10603 10604 10604 10604 10604 10604 10604 10604 10604 10604 10605 10606 10607 10607 10608 10609 10610 10612 10613 10614 10616 10618 10619 10620 10622 10623 10625 10627 10628 10630 10631 10634 10637
10592 10595 10594 10592 10587 10583 10585 10588 10588 10587 10586 10586 10585 10585 10585 10585 10584 10583 10583 10584 10585 10588 10589 10589 10590 10590 10589 10588 10588 10589 10590 10591 10592 10593 10593 10594 10594 10595 10595 10596 10596 10597 10597 10598 10598 10598 10598 10598 10599 10599 10599 10599 10599 10600 10600 10600 10600 10600 10600 10601 10601 10601 10601 10602 10603 10603 10604 10604 10605 10606 10608 10609 10610 10612 10613 10615 10617 10619 10621 10623 10624 10626 10628 10629 10632